Location: Unspecified
(0.0000°N, 0.0000°E)
Time: 07:07:17
(UTC+00:00)

S-56A Canister/Altair - All Passes

Search period start: 20 October 2021 00:00
Search period end: 30 October 2021 00:00
Orbit: 631 x 2501 km, 38.9° (Epoch: 19 October)

Date Brightness Start Highest point End Pass type
(mag) Time Alt. Az. Time Alt. Az. Time Alt. Az.
20 Oct - 00:36:25 10° W 00:42:11 17° SW 00:46:52 10° S night (unlit)
20 Oct - 09:05:46 10° SSW 09:10:49 32° SE 09:17:48 10° ENE daylight
20 Oct - 11:08:27 10° WSW 11:15:04 47° NW 11:25:01 10° NE daylight
20 Oct - 13:17:44 10° NW 13:22:31 14° NNW 13:28:03 10° N daylight
20 Oct - 19:45:50 10° NNW 19:57:42 29° NNE 20:07:18 10° E visible
20 Oct - 21:51:15 10° NW 22:04:49 86° NE 22:13:55 10° SE visible
21 Oct - 00:01:35 10° W 00:09:23 23° SW 00:15:18 10° S night (unlit)
21 Oct - 08:33:54 10° S 08:38:15 24° SE 08:43:55 10° E daylight
21 Oct - 10:35:54 10° WSW 10:42:09 54° NW 10:51:36 10° NE daylight
21 Oct - 12:44:10 10° WNW 12:49:04 15° NNW 12:54:55 10° N daylight
21 Oct - 19:12:33 10° NNW 19:24:03 26° NNE 19:33:46 10° E visible
21 Oct - 21:17:32 10° NW 21:31:35 76° NE 21:41:17 10° SE visible
21 Oct - 23:27:01 10° W 23:36:31 29° SW 23:43:28 10° SSE night (unlit)
22 Oct - 08:02:15 10° S 08:05:42 17° SE 08:09:52 10° E daylight
22 Oct - 10:03:26 10° WSW 10:09:18 63° NW 10:18:14 10° NE daylight
22 Oct - 12:10:47 10° WNW 12:15:44 16° NNW 12:21:46 10° N daylight
22 Oct - 18:39:21 10° NNW 18:50:19 24° NNE 19:00:00 10° E visible
22 Oct - 20:43:52 10° NW 20:58:15 68° NE 21:08:33 10° ESE visible
22 Oct - 22:52:37 10° WNW 23:03:35 36° SW 23:11:26 10° SSE visible
23 Oct - 07:31:07 10° SSE 07:33:10 12° SE 07:35:23 10° ESE daylight
23 Oct - 09:31:02 10° SW 09:36:33 76° NW 09:44:53 10° NE daylight
23 Oct - 11:37:34 10° WNW 11:42:29 18° NNW 11:48:39 10° N daylight
23 Oct - 18:06:19 10° NNW 18:16:33 21° NNE 18:25:58 10° ENE visible
23 Oct - 20:10:17 10° NW 20:24:49 60° NE 20:35:42 10° ESE visible
23 Oct - 22:18:20 10° WNW 22:30:35 44° SW 22:39:14 10° SSE visible
24 Oct - 08:58:41 10° SW 09:03:55 88° SE 09:11:34 10° NE daylight
24 Oct - 11:04:30 10° WNW 11:09:20 19° NNW 11:15:33 10° NNE daylight
24 Oct - 17:33:24 10° N 17:42:43 19° NNE 17:51:37 10° ENE daylight
24 Oct - 19:36:47 10° NW 19:51:18 54° NE 20:02:41 10° ESE visible
24 Oct - 21:44:11 10° WNW 21:57:28 52° SW 22:06:56 10° SSE visible
25 Oct - 08:26:26 10° SW 08:31:20 69° SE 08:38:16 10° NE daylight
25 Oct - 10:31:33 10° WNW 10:36:18 21° NNW 10:42:30 10° NNE daylight
25 Oct - 17:00:43 10° N 17:08:51 16° NNE 17:16:52 10° ENE daylight
25 Oct - 19:03:23 10° NNW 19:17:43 48° NE 19:29:31 10° ESE visible
25 Oct - 21:10:08 10° WNW 21:24:16 61° SW 21:34:30 10° SE visible
25 Oct - 23:24:28 10° WSW 23:29:32 14° SW 23:33:55 10° SSW visible
26 Oct - 07:54:13 10° SSW 07:58:50 52° SE 08:05:00 10° ENE daylight
26 Oct - 09:58:41 10° W 10:03:21 23° NNW 10:09:30 10° NNE daylight
26 Oct - 16:28:21 10° N 16:34:57 14° NNE 16:41:38 10° NE daylight
26 Oct - 18:30:05 10° NNW 18:44:04 43° NE 18:56:11 10° ESE visible
26 Oct - 20:36:13 10° NW 20:50:58 71° SW 21:01:56 10° SE visible
26 Oct - 22:48:49 10° W 22:56:26 18° SW 23:02:40 10° S visible
27 Oct - 07:22:04 10° SSW 07:26:22 38° SE 07:31:43 10° ENE daylight
27 Oct - 09:25:55 10° W 09:30:29 26° NNW 09:36:32 10° NNE daylight
27 Oct - 15:56:37 10° N 16:01:03 12° NNE 16:05:35 10° NE daylight
27 Oct - 17:56:55 10° NNW 18:10:23 38° NE 18:22:39 10° E visible
27 Oct - 20:02:25 10° NW 20:17:34 80° SW 20:29:15 10° SE visible
27 Oct - 22:13:43 10° W 22:23:17 23° SW 22:30:55 10° S visible
28 Oct - 06:50:00 10° SSW 06:53:54 28° SE 06:58:26 10° ENE daylight
28 Oct - 08:53:14 10° W 08:57:42 30° NW 09:03:38 10° NNE daylight
28 Oct - 17:23:52 10° NNW 17:36:41 34° NE 17:48:55 10° E daylight
28 Oct - 19:28:44 10° NW 19:44:05 89° SW 19:56:26 10° SE visible
28 Oct - 21:38:56 10° W 21:50:05 28° SW 21:58:53 10° SSE visible
29 Oct - 06:18:02 10° S 06:21:24 21° SE 06:25:05 10° E daylight
29 Oct - 08:20:36 10° WSW 08:25:00 35° NW 08:30:46 10° NNE daylight
29 Oct - 16:50:57 10° NNW 17:02:58 30° NE 17:14:56 10° E daylight
29 Oct - 18:55:12 10° NW 19:10:32 82° NE 19:23:29 10° SE visible
29 Oct - 21:04:23 10° WNW 21:16:48 34° SW 21:26:39 10° SSE visible
